SCP
-0 -0 -0 -0 -0 -0 -0 0 0 0 0 0 0 0 0 0 0 0 0 0 0 0 0 0 0 0 0 0 0 0 0 0 0 0 0 0 0 0 0 0 0 0 0 0
0 -0 -0 -0 -0 -0 0 0 0 0 0 0 0 0 0 0 0 0 0 0 0 0 0 0 0 0 0 0 0 0 0 0 0 0 0 0 0 0 0 0 0 0 0 0
0 0 -0 -0 -0 -0 0 0 0 0 0 0 0 0 0 0 0 0 0 0 0 0 0 0 0 0 0 0 0 0 0 0 0 0 0 0 0 0 0 0 0 0 0 -0
0 0 -0 -0 -0 -0 0 0 0 0 0 0 0 0 0 0 0 0 0 0 0 0 0 0 0 0 0 0 0 0 0 0 0 0 0 0 0 0 -0 0 0 0 0 0
0 0 0 -0 -0 -0 0 0 0 0 0 0 0 0 0 0 0 0 0 0 0 0 0 0 0 0 0 0 0 0 0 0 0 0 0 0 0 0 0 0 0 0 0 0
0 0 0 0 -0 0 0 0 0 0 0 0 0 0 0 0 0 0 0 0 0 0 0 0 0 0 0 0 0 0 0 0 0 0 0 0 0 0 0 0 0 0 0 0
0 0 0 0 0 0 0 0 0 0 0 0 0 0 0 0 0 0 0 0 0 0 0 0 0 0 0 0 0 0 0 0 0 0 0 0 0 -0 0 0 -0 0 0 0
0 0 0 0 0 0 0 0 0 0 0 0 0 0 0 0 0 0 0 0 0 0 0 0 0 0 0 0 0 0 0 0 0 0 0 0 0 0 0 0 0 0 0 0
0 0 0 0 0 0 0 0 0 0 0 0 0 0 0 0 0 0 0 0 0 0 0 0 0 0 0 0 0 0 0 0 0 0 0 0 0 -0 0 -0 0 -0 0 0
0 0 0 0 0 0 0 0 0 0 0 0 0 0 0 0 0 0 0 0 0 0 0 0 0 0 0 0 0 0 0 0 0 0 0 0 0 -0 -0 0 0 0 0 0
0 0 0 0 0 0 0 0 0 0 0 0 0 0 0 0 0 0 0 0 0 0 0 0 0 0 0 0 0 0 0 0 0 0 0 0 0 -0 0 -0 0 0 0 0
0 0 0 0 0 0 0 0 0 0 0 0 0 0 0 0 0 0 0 0 0 0 0 0 0 0 0 0 0 0 0 0 0 0 0 0 0 0 0 -0 0 0 0 0
0 0 0 0 0 0 0 0 0 -0 -0 0 0 0 0 0 0 0 0 0 0 0 0 0 0 0 0 0 0 0 0 0 0 0 0 0 0 0 0 0 0 0 0 0
0 0 0 0 0 0 0 0 0 0 0 0 0 0 0 0 0 0 0 0 0 0 0 0 0 0 0 0 0 0 0 0 0 0 0 0 0 0 0 0 0 0 0 0
0 0 0 0 0 0 0 0 0 0 0 0 0 0 0 0 0 0 0 0 0 0 0 0 0 0 0 0 0 0 0 0 0 0 0 0 0 0 0 0 0 0 0 0
0 0 0 0 0 0 0 0 0 0 0 0 0 0 0 0 0 0 0 0 0 0 0 0 0 0 0 0 0 0 0 0 0 0 0 0 0 0 0 0 0 0 0 0
0 0 0 0 0 0 0 0 0 -0 -0 0 0 0 0 0 0 0 0 0 0 0 0 0 0 0 0 0 0 0 0 0 0 0 0 0 0 0 0 0 0 0 0 0
0 0 0 0 0 0 0 0 0 0 0 0 0 0 0 0 0 0 0 0 0 0 0 0 0 0 0 0 0 0 0 0 0 0 0 0 0 0 0 0 0 0 0 0
0 0 0 0 0 0 0 0 0 0 0 0 0 0 0 0 0 0 0 0 0 0 0 0 0 0 0 0 0 0 0 0 0 0 0 0 0 0 0 0 0 0 0 0
0 0 0 0 0 0 0 0 0 0 0 0 0 0 0 0 0 0 0 0 0 0 0 0 0 0 0 0 0 0 0 0 0 0 0 0 0 0 0 0 0 0 0 0
0 0 0 0 0 0 0 0 0 0 0 0 0 0 0 0 0 0 0 0 0 0 0 0 0 0 0 0 0 0 0 0 0 0 0 0 0 0 0 0 0 0 0 0
0 0 0 0 0 0 0 0 0 0 0 0 0 0 0 0 0 0 0 0 0 0 0 0 0 0 0 0 0 0 0 0 0 0 0 0 0 0 0 0 0 0 0 0
0 0 0 0 0 0 0 0 0 0 0 0 0 0 0 0 0 0 0 0 0 0 0 0 0 0 0 0 0 0 0 0 0 0 0 0 0 0 0 0 0 0 0 0
0 0 0 0 0 0 0 0 0 0 0 0 0 0 0 0 0 0 0 0 0 0 0 0 0 0 0 0 0 0 0 0 0 0 0 0 0 0 0 0 0 0 0 0
0 0 0 0 0 0 0 0 0 0 0 0 0 0 0 0 0 0 0 0 0 0 0 0 0 0 0 0 0 0 0 0 0 0 0 -0 -0 -0 0 0 0 0 0 0
0 0 0 0 0 0 0 0 0 0 0 0 0 0 0 0 0 0 0 0 0 0 0 0 0 0 0 0 0 0 0 0 0 -0 -0 -0 0 0 0 0 0 0 0 0
0 0 0 0 0 0 0 0 0 0 0 0 0 0 0 0 0 0 0 0 0 0 0 0 0 0 0 0 0 0 0 0 -0 -0 -0 0 0 0 0 0 0 0 0 0
Wind_Speed_500mb
47 47 46 49 55 56 45 11 0 5 3 4 4 5 6 6 10 3 7 2 4 8 5 5 5 2 4 6 2 6 5 5 12 23 4 6 3 9 10 11 9 6 7 12
45 45 44 43 50 58 48 23 7 3 4 4 2 4 6 7 4 5 8 12 7 3 6 3 4 2 4 5 2 2 1 3 11 14 7 5 4 3 5 2 3 19 15 14
44 43 43 40 45 49 35 12 3 6 7 9 3 4 3 7 7 6 4 5 7 7 5 2 9 2 5 6 6 4 5 4 16 24 29 7 18 12 10 12 12 23 23 35
41 42 41 39 41 42 25 14 6 7 5 5 6 3 3 5 2 2 1 5 4 8 6 4 5 3 2 8 5 4 1 8 6 21 20 17 21 24 18 20 25 17 28 22
38 39 38 38 40 39 17 11 10 13 8 9 5 1 2 4 6 5 3 9 8 6 7 4 3 3 4 1 4 4 4 3 7 18 8 8 14 12 13 13 21 18 23 22
36 34 36 36 37 40 19 22 12 7 7 6 3 3 7 2 13 3 1 14 8 5 5 5 9 11 13 7 2 2 1 5 5 6 15 17 4 18 14 20 22 15 12 17
33 30 31 31 37 40 40 28 14 7 4 5 4 10 16 12 8 3 7 11 5 6 23 27 20 23 20 16 15 5 1 1 2 8 17 3 7 8 12 20 26 22 22 25
31 29 26 27 28 33 37 18 13 8 6 8 8 14 8 6 2 4 7 10 4 29 5 3 2 2 4 4 6 7 3 4 1 5 6 7 5 10 8 1 11 13 19 19
29 28 23 26 24 27 28 10 17 9 8 3 9 9 8 5 5 5 4 10 22 5 5 2 2 4 0 4 5 5 6 5 2 2 1 5 8 13 2 4 10 9 15 10
29 27 24 24 23 22 25 15 10 12 9 11 5 4 7 4 2 1 2 3 7 7 3 3 5 4 1 3 3 2 1 1 1 2 3 4 4 11 3 2 1 12 16 10
29 26 25 23 25 21 20 14 9 22 11 42 41 30 12 11 5 3 3 3 6 4 4 4 5 6 5 5 2 3 4 4 4 3 4 3 4 7 0 6 8 5 6 10
29 26 25 23 24 24 20 17 24 28 25 34 54 61 60 45 32 14 7 6 3 8 6 4 4 5 6 4 3 4 5 5 1 8 2 6 12 12 8 1 1 6 7 8
31 26 25 24 23 26 26 27 27 33 21 46 24 10 11 32 41 45 17 13 12 9 10 9 4 7 7 7 7 6 7 7 5 5 3 5 5 5 9 13 16 14 15 16
30 27 25 25 25 26 30 33 32 34 18 11 14 16 11 9 17 22 44 21 7 5 11 5 5 5 10 3 2 6 3 18 8 5 5 14 11 13 18 26 28 24 20 19
30 28 25 25 27 27 30 35 37 22 20 10 28 59 25 16 37 38 36 47 44 6 4 6 5 7 7 3 2 8 17 10 9 6 20 7 8 11 16 19 21 19 17 20
30 28 26 24 27 24 22 10 5 23 19 9 9 15 14 8 12 28 48 47 37 15 8 1 3 5 3 5 6 5 17 17 14 10 16 19 24 20 17 21 22 20 18 19
29 28 26 24 27 27 20 12 11 18 5 7 15 13 8 9 9 17 16 26 21 15 10 6 10 6 7 6 9 8 20 14 15 21 32 19 15 16 22 21 23 20 22 23
27 27 26 26 28 33 35 25 26 36 17 12 7 10 12 3 5 7 16 19 18 16 13 13 14 24 12 9 2 4 7 12 14 20 26 15 31 27 24 20 18 17 18 17
24 24 23 27 27 22 18 15 17 15 23 7 8 6 4 6 3 7 8 12 7 10 8 8 11 6 10 3 5 1 9 10 16 20 25 30 31 28 25 20 20 19 19 18
18 18 10 8 8 13 10 8 9 17 18 16 13 9 8 6 1 3 6 4 6 8 5 14 3 5 6 6 1 7 5 11 26 36 29 27 30 28 28 27 24 23 17 18
6 5 8 10 10 10 9 7 12 13 10 18 19 40 25 14 8 2 9 5 6 7 8 8 7 5 7 9 15 16 21 23 23 26 30 30 29 29 25 22 20 18 13 19
9 18 31 19 9 10 8 8 8 11 9 14 12 15 25 12 18 15 10 5 6 7 20 8 6 6 22 23 28 31 36 39 43 35 34 29 25 23 19 19 18 9 12 10
17 8 8 7 6 7 10 15 9 7 9 11 12 7 8 11 16 8 7 10 6 25 6 4 4 28 28 29 32 35 33 33 34 33 27 25 24 17 16 15 7 6 7 13
8 7 10 11 9 12 11 7 7 14 4 7 7 5 7 4 7 2 5 4 9 7 8 5 5 28 32 30 30 31 30 29 29 28 20 21 22 20 13 9 6 3 10 16
9 8 10 14 18 16 18 20 16 16 11 6 4 6 5 2 6 2 5 9 2 6 5 5 26 34 33 32 32 32 28 22 20 19 22 21 18 17 15 11 6 7 11 14
10 14 11 17 16 14 10 16 12 8 8 7 6 6 6 4 2 6 6 8 8 9 7 28 33 34 33 31 28 25 22 22 24 22 19 14 10 10 8 7 8 8 12 15
10 15 20 30 26 22 13 14 12 13 5 6 5 7 4 7 5 4 6 5 5 25 47 36 31 31 29 28 25 22 22 20 20 15 8 4 7 7 6 9 12 17 22 28
Wind_Direction_500mb
340 340 344 347 343 347 355 360 182 167 172 60 40 175 204 301 282 255 253 208 174 186 149 142 149 190 239 184 272 271 41 271 251 263 48 16 292 276 227 247 227 228 291 268
340 340 343 350 349 348 353 345 324 89 23 138 110 293 271 257 261 211 180 192 203 164 132 159 175 208 95 116 77 316 87 238 289 267 230 114 283 253 223 98 164 241 264 265
340 342 341 351 351 349 352 356 327 19 75 77 70 348 279 277 264 249 165 151 157 118 94 61 190 226 81 73 82 67 197 230 260 281 295 281 275 253 219 220 266 280 257 284
341 343 342 349 356 357 360 11 39 7 351 69 360 235 294 308 327 308 131 106 111 137 140 192 209 220 180 73 18 62 359 270 271 286 289 270 267 275 290 249 271 266 292 274
341 342 344 347 359 9 25 28 4 341 288 304 309 275 58 336 344 328 50 150 116 124 155 199 248 210 207 359 63 52 23 292 315 297 331 336 282 315 302 319 352 264 288 292
335 342 344 347 356 14 33 360 347 343 308 334 271 14 344 308 335 82 17 128 112 102 51 36 82 100 91 99 88 110 335 312 324 283 324 304 175 356 20 60 27 339 25 10
329 338 338 347 349 8 12 1 355 341 308 325 343 332 322 301 302 321 36 53 106 129 117 100 93 82 84 84 69 41 131 122 245 302 321 70 360 340 76 73 37 26 45 37
326 330 331 335 344 352 4 16 14 351 300 309 309 344 335 310 43 65 67 27 111 148 118 123 134 100 174 100 65 69 62 146 145 334 344 308 85 26 357 342 65 79 114 80
322 322 322 324 335 340 359 20 4 342 317 204 312 310 321 346 10 116 84 45 153 127 75 98 212 247 182 202 153 131 97 69 283 180 360 26 15 347 77 186 75 229 171 164
318 316 314 316 322 334 348 353 9 2 298 289 307 265 322 312 9 300 346 360 167 213 150 140 196 213 291 241 251 171 145 60 291 195 255 221 300 336 245 77 228 299 286 320
313 311 308 308 313 321 335 340 344 346 289 287 276 269 239 249 244 255 14 263 191 153 148 185 176 217 197 233 218 231 239 226 204 164 226 197 5 280 359 7 326 334 50 57
307 306 302 299 305 310 317 323 321 320 290 273 287 278 271 255 237 274 290 287 241 191 120 186 146 194 188 218 251 187 229 238 275 223 327 330 297 262 302 291 40 50 60 58
302 300 297 293 297 303 307 307 320 328 306 308 286 294 237 236 237 238 220 240 221 200 182 143 134 233 174 201 221 192 210 180 233 240 166 284 51 106 142 126 117 101 94 93
298 296 293 289 287 292 300 304 310 309 298 285 286 313 294 248 225 240 230 215 201 190 176 160 171 226 205 245 25 239 134 162 192 238 196 137 109 112 119 118 112 104 92 83
295 292 290 287 285 285 293 296 299 291 224 282 289 301 291 231 236 239 230 225 225 247 253 207 216 139 173 146 235 232 188 175 192 214 173 190 125 136 146 134 114 108 105 98
293 289 286 285 286 288 309 293 246 340 241 289 292 297 291 288 229 218 217 221 220 213 216 248 66 58 325 240 237 205 192 192 175 159 155 145 135 127 121 119 113 108 102 87
290 286 283 282 283 280 270 254 283 334 51 297 293 286 270 300 207 189 183 199 200 189 173 143 131 63 351 237 249 177 192 182 183 151 144 132 158 129 119 120 114 106 92 84
288 286 281 278 275 278 275 263 261 264 254 265 274 277 300 233 194 144 155 159 169 183 171 176 188 135 190 250 261 281 211 171 173 189 204 193 153 134 121 114 106 99 83 79
287 286 286 285 260 253 247 261 266 230 213 264 231 274 303 334 119 127 149 164 164 178 189 206 158 137 217 207 285 342 170 180 150 129 137 136 129 119 107 91 71 66 71 64
287 295 277 245 221 206 286 244 206 189 206 226 248 242 259 323 54 129 158 186 169 186 157 135 187 190 97 24 42 205 197 178 156 135 127 123 107 97 85 79 72 58 44 55
294 266 254 259 246 270 223 221 203 175 225 214 228 226 239 252 247 262 208 180 184 211 165 202 183 216 144 102 88 119 139 149 150 140 123 112 114 108 93 77 64 44 34 31
270 285 294 281 218 212 229 212 174 210 236 200 201 223 205 225 204 209 185 211 195 225 146 171 200 113 128 107 100 101 116 126 123 122 116 104 87 75 69 66 39 15 12 16
288 265 262 235 188 214 213 198 209 214 217 201 199 193 171 186 199 207 193 213 204 134 180 199 60 130 131 120 114 109 112 117 114 110 105 102 97 76 46 35 54 28 22 12
252 240 278 215 209 232 207 225 218 228 226 174 205 157 180 170 173 199 219 89 160 186 192 209 102 131 127 128 124 123 115 106 98 91 84 66 61 62 61 64 97 33 355 356
249 225 239 231 244 278 286 286 276 267 268 225 202 137 163 120 168 169 132 185 203 12 34 51 121 136 140 129 127 125 120 110 89 76 67 73 70 53 40 29 8 340 333 331
241 232 258 259 278 290 309 321 286 276 244 201 205 159 165 170 180 169 176 174 165 153 113 133 149 142 138 133 129 119 103 85 76 89 90 76 51 23 16 360 348 319 319 324
237 243 253 269 280 282 303 313 292 299 248 204 218 187 95 122 145 118 3 10 48 127 122 144 151 134 126 123 116 105 101 107 106 112 104 57 360 350 332 329 326 320 313 313
Wind_Speed_850mb
47 47 46 49 55 56 45 11 0 5 3 4 4 5 6 6 10 3 7 2 4 8 5 5 5 2 4 6 2 6 5 5 12 23 4 6 3 9 10 11 9 6 7 12
45 45 44 43 50 58 48 23 7 3 4 4 2 4 6 7 4 5 8 12 7 3 6 3 4 2 4 5 2 2 1 3 11 14 7 5 4 3 5 2 3 19 15 14
44 43 43 40 45 49 35 12 3 6 7 9 3 4 3 7 7 6 4 5 7 7 5 2 9 2 5 6 6 4 5 4 16 24 29 7 18 12 10 12 12 23 23 35
41 42 41 39 41 42 25 14 6 7 5 5 6 3 3 5 2 2 1 5 4 8 6 4 5 3 2 8 5 4 1 8 6 21 20 17 21 24 18 20 25 17 28 22
38 39 38 38 40 39 17 11 10 13 8 9 5 1 2 4 6 5 3 9 8 6 7 4 3 3 4 1 4 4 4 3 7 18 8 8 14 12 13 13 21 18 23 22
36 34 36 36 37 40 19 22 12 7 7 6 3 3 7 2 13 3 1 14 8 5 5 5 9 11 13 7 2 2 1 5 5 6 15 17 4 18 14 20 22 15 12 17
33 30 31 31 37 40 40 28 14 7 4 5 4 10 16 12 8 3 7 11 5 6 23 27 20 23 20 16 15 5 1 1 2 8 17 3 7 8 12 20 26 22 22 25
31 29 26 27 28 33 37 18 13 8 6 8 8 14 8 6 2 4 7 10 4 29 5 3 2 2 4 4 6 7 3 4 1 5 6 7 5 10 8 1 11 13 19 19
29 28 23 26 24 27 28 10 17 9 8 3 9 9 8 5 5 5 4 10 22 5 5 2 2 4 0 4 5 5 6 5 2 2 1 5 8 13 2 4 10 9 15 10
29 27 24 24 23 22 25 15 10 12 9 11 5 4 7 4 2 1 2 3 7 7 3 3 5 4 1 3 3 2 1 1 1 2 3 4 4 11 3 2 1 12 16 10
29 26 25 23 25 21 20 14 9 22 11 42 41 30 12 11 5 3 3 3 6 4 4 4 5 6 5 5 2 3 4 4 4 3 4 3 4 7 0 6 8 5 6 10
29 26 25 23 24 24 20 17 24 28 25 34 54 61 60 45 32 14 7 6 3 8 6 4 4 5 6 4 3 4 5 5 1 8 2 6 12 12 8 1 1 6 7 8
31 26 25 24 23 26 26 27 27 33 21 46 24 10 11 32 41 45 17 13 12 9 10 9 4 7 7 7 7 6 7 7 5 5 3 5 5 5 9 13 16 14 15 16
30 27 25 25 25 26 30 33 32 34 18 11 14 16 11 9 17 22 44 21 7 5 11 5 5 5 10 3 2 6 3 18 8 5 5 14 11 13 18 26 28 24 20 19
30 28 25 25 27 27 30 35 37 22 20 10 28 59 25 16 37 38 36 47 44 6 4 6 5 7 7 3 2 8 17 10 9 6 20 7 8 11 16 19 21 19 17 20
30 28 26 24 27 24 22 10 5 23 19 9 9 15 14 8 12 28 48 47 37 15 8 1 3 5 3 5 6 5 17 17 14 10 16 19 24 20 17 21 22 20 18 19
29 28 26 24 27 27 20 12 11 18 5 7 15 13 8 9 9 17 16 26 21 15 10 6 10 6 7 6 9 8 20 14 15 21 32 19 15 16 22 21 23 20 22 23
27 27 26 26 28 33 35 25 26 36 17 12 7 10 12 3 5 7 16 19 18 16 13 13 14 24 12 9 2 4 7 12 14 20 26 15 31 27 24 20 18 17 18 17
24 24 23 27 27 22 18 15 17 15 23 7 8 6 4 6 3 7 8 12 7 10 8 8 11 6 10 3 5 1 9 10 16 20 25 30 31 28 25 20 20 19 19 18
18 18 10 8 8 13 10 8 9 17 18 16 13 9 8 6 1 3 6 4 6 8 5 14 3 5 6 6 1 7 5 11 26 36 29 27 30 28 28 27 24 23 17 18
6 5 8 10 10 10 9 7 12 13 10 18 19 40 25 14 8 2 9 5 6 7 8 8 7 5 7 9 15 16 21 23 23 26 30 30 29 29 25 22 20 18 13 19
9 18 31 19 9 10 8 8 8 11 9 14 12 15 25 12 18 15 10 5 6 7 20 8 6 6 22 23 28 31 36 39 43 35 34 29 25 23 19 19 18 9 12 10
17 8 8 7 6 7 10 15 9 7 9 11 12 7 8 11 16 8 7 10 6 25 6 4 4 28 28 29 32 35 33 33 34 33 27 25 24 17 16 15 7 6 7 13
8 7 10 11 9 12 11 7 7 14 4 7 7 5 7 4 7 2 5 4 9 7 8 5 5 28 32 30 30 31 30 29 29 28 20 21 22 20 13 9 6 3 10 16
9 8 10 14 18 16 18 20 16 16 11 6 4 6 5 2 6 2 5 9 2 6 5 5 26 34 33 32 32 32 28 22 20 19 22 21 18 17 15 11 6 7 11 14
10 14 11 17 16 14 10 16 12 8 8 7 6 6 6 4 2 6 6 8 8 9 7 28 33 34 33 31 28 25 22 22 24 22 19 14 10 10 8 7 8 8 12 15
10 15 20 30 26 22 13 14 12 13 5 6 5 7 4 7 5 4 6 5 5 25 47 36 31 31 29 28 25 22 22 20 20 15 8 4 7 7 6 9 12 17 22 28
Wind_Direction_850mb
340 340 344 347 343 347 355 360 182 167 172 60 40 175 204 301 282 255 253 208 174 186 149 142 149 190 239 184 272 271 41 271 251 263 48 16 292 276 227 247 227 228 291 268
340 340 343 350 349 348 353 345 324 89 23 138 110 293 271 257 261 211 180 192 203 164 132 159 175 208 95 116 77 316 87 238 289 267 230 114 283 253 223 98 164 241 264 265
340 342 341 351 351 349 352 356 327 19 75 77 70 348 279 277 264 249 165 151 157 118 94 61 190 226 81 73 82 67 197 230 260 281 295 281 275 253 219 220 266 280 257 284
341 343 342 349 356 357 360 11 39 7 351 69 360 235 294 308 327 308 131 106 111 137 140 192 209 220 180 73 18 62 359 270 271 286 289 270 267 275 290 249 271 266 292 274
341 342 344 347 359 9 25 28 4 341 288 304 309 275 58 336 344 328 50 150 116 124 155 199 248 210 207 359 63 52 23 292 315 297 331 336 282 315 302 319 352 264 288 292
335 342 344 347 356 14 33 360 347 343 308 334 271 14 344 308 335 82 17 128 112 102 51 36 82 100 91 99 88 110 335 312 324 283 324 304 175 356 20 60 27 339 25 10
329 338 338 347 349 8 12 1 355 341 308 325 343 332 322 301 302 321 36 53 106 129 117 100 93 82 84 84 69 41 131 122 245 302 321 70 360 340 76 73 37 26 45 37
326 330 331 335 344 352 4 16 14 351 300 309 309 344 335 310 43 65 67 27 111 148 118 123 134 100 174 100 65 69 62 146 145 334 344 308 85 26 357 342 65 79 114 80
322 322 322 324 335 340 359 20 4 342 317 204 312 310 321 346 10 116 84 45 153 127 75 98 212 247 182 202 153 131 97 69 283 180 360 26 15 347 77 186 75 229 171 164
318 316 314 316 322 334 348 353 9 2 298 289 307 265 322 312 9 300 346 360 167 213 150 140 196 213 291 241 251 171 145 60 291 195 255 221 300 336 245 77 228 299 286 320
313 311 308 308 313 321 335 340 344 346 289 287 276 269 239 249 244 255 14 263 191 153 148 185 176 217 197 233 218 231 239 226 204 164 226 197 5 280 359 7 326 334 50 57
307 306 302 299 305 310 317 323 321 320 290 273 287 278 271 255 237 274 290 287 241 191 120 186 146 194 188 218 251 187 229 238 275 223 327 330 297 262 302 291 40 50 60 58
302 300 297 293 297 303 307 307 320 328 306 308 286 294 237 236 237 238 220 240 221 200 182 143 134 233 174 201 221 192 210 180 233 240 166 284 51 106 142 126 117 101 94 93
298 296 293 289 287 292 300 304 310 309 298 285 286 313 294 248 225 240 230 215 201 190 176 160 171 226 205 245 25 239 134 162 192 238 196 137 109 112 119 118 112 104 92 83
295 292 290 287 285 285 293 296 299 291 224 282 289 301 291 231 236 239 230 225 225 247 253 207 216 139 173 146 235 232 188 175 192 214 173 190 125 136 146 134 114 108 105 98
293 289 286 285 286 288 309 293 246 340 241 289 292 297 291 288 229 218 217 221 220 213 216 248 66 58 325 240 237 205 192 192 175 159 155 145 135 127 121 119 113 108 102 87
290 286 283 282 283 280 270 254 283 334 51 297 293 286 270 300 207 189 183 199 200 189 173 143 131 63 351 237 249 177 192 182 183 151 144 132 158 129 119 120 114 106 92 84
288 286 281 278 275 278 275 263 261 264 254 265 274 277 300 233 194 144 155 159 169 183 171 176 188 135 190 250 261 281 211 171 173 189 204 193 153 134 121 114 106 99 83 79
287 286 286 285 260 253 247 261 266 230 213 264 231 274 303 334 119 127 149 164 164 178 189 206 158 137 217 207 285 342 170 180 150 129 137 136 129 119 107 91 71 66 71 64
287 295 277 245 221 206 286 244 206 189 206 226 248 242 259 323 54 129 158 186 169 186 157 135 187 190 97 24 42 205 197 178 156 135 127 123 107 97 85 79 72 58 44 55
294 266 254 259 246 270 223 221 203 175 225 214 228 226 239 252 247 262 208 180 184 211 165 202 183 216 144 102 88 119 139 149 150 140 123 112 114 108 93 77 64 44 34 31
270 285 294 281 218 212 229 212 174 210 236 200 201 223 205 225 204 209 185 211 195 225 146 171 200 113 128 107 100 101 116 126 123 122 116 104 87 75 69 66 39 15 12 16
288 265 262 235 188 214 213 198 209 214 217 201 199 193 171 186 199 207 193 213 204 134 180 199 60 130 131 120 114 109 112 117 114 110 105 102 97 76 46 35 54 28 22 12
252 240 278 215 209 232 207 225 218 228 226 174 205 157 180 170 173 199 219 89 160 186 192 209 102 131 127 128 124 123 115 106 98 91 84 66 61 62 61 64 97 33 355 356
249 225 239 231 244 278 286 286 276 267 268 225 202 137 163 120 168 169 132 185 203 12 34 51 121 136 140 129 127 125 120 110 89 76 67 73 70 53 40 29 8 340 333 331
241 232 258 259 278 290 309 321 286 276 244 201 205 159 165 170 180 169 176 174 165 153 113 133 149 142 138 133 129 119 103 85 76 89 90 76 51 23 16 360 348 319 319 324
237 243 253 269 280 282 303 313 292 299 248 204 218 187 95 122 145 118 3 10 48 127 122 144 151 134 126 123 116 105 101 107 106 112 104 57 360 350 332 329 326 320 313 313